Moses Lake, WA

3:22 AM PST on February 18, 2018 (GMT -0800)
Grant County International

Weather History for KMWH - April, 2014

Change the Weather History Date:

Friday, April 11, 2014

  Actual Average Record
Temperature  
Mean Temperature 55 °F 49 °F  
Max Temperature 72 °F 62 °F 79 °F (1985)
Min Temperature 38 °F 36 °F 22 °F (2007)
Degree Days  
Heating Degree Days 10 16  
Month to date heating degree days 128 186  
Since 1 July heating degree days 5273 5358  
Cooling Degree Days 0 0  
Month to date cooling degree days 0 0  
Year to date cooling degree days 0 0  
Growing Degree Days 5 (Base 50)    
Moisture  
Dew Point 26 °F    
Average Humidity 43    
Maximum Humidity 70    
Minimum Humidity 15    
Precipitation  
Precipitation 0.00 in 0.02 in 0.22 in (1982)
Month to date precipitation T 0.27  
Year to date precipitation 1.86 2.99  
Sea Level Pressure  
Sea Level Pressure 29.95 in    
Wind  
Wind Speed 9 mph (WNW)    
Max Wind Speed 31 mph    
Max Gust Speed 36 mph    
Visibility 10 miles    
Events      
T = Trace of Precipitation, MM = Missing Value Source: NWS Daily Summary

Daily Weather History Graph

Daily Weather History Graph

Search for Another Location

Airport or City:

Trip Planner

Search our weather history database for the weather conditions in past years. The results will help you decide how hot, cold, wet, or windy it might be!

Date:

Astronomy

Apr. 11, 2014 Rise Set
Actual Time 6:16 AM PDT 7:40 PM PDT
Civil Twilight 5:44 AM PDT 8:12 PM PDT
Nautical Twilight 5:06 AM PDT 8:51 PM PDT
Astronomical Twilight 4:25 AM PDT 9:32 PM PDT
Moon 4:13 PM PDT (4/11) 4:28 AM PDT (4/11)
Length of Visible Light 14h 27m
Length of Day
13h 24m
Waxing Gibbous, 87% of the Moon is Illuminated
Apr 11
Waxing Gibbous
Apr 15
Full
Apr 22
Last Quarter
Apr 28
New
May 6
First Quarter

Hourly Weather History & Observations

Time (PDT) Temp. Windchill Dew Point Humidity Pressure Visibility Wind Dir Wind Speed Gust Speed Precip Events Conditions
12:52 AM 50.0 °F - 28.0 °F 43% 30.00 in 10.0 mi SW 4.6 mph - N/A   Clear
1:52 AM 48.0 °F - 30.0 °F 50% 30.00 in 10.0 mi SSW 3.5 mph - N/A   Clear
2:52 AM 45.0 °F - 28.9 °F 53% 30.00 in 10.0 mi Calm Calm - N/A   Clear
3:52 AM 43.0 °F 40.3 °F 28.9 °F 58% 30.00 in 10.0 mi WSW 4.6 mph - N/A   Clear
4:52 AM 44.1 °F - 30.9 °F 60% 29.99 in 10.0 mi Calm Calm - N/A   Clear
5:52 AM 41.0 °F 38.0 °F 30.9 °F 67% 29.99 in 10.0 mi ENE 4.6 mph - N/A   Clear
6:52 AM 39.9 °F - 30.9 °F 70% 29.99 in 10.0 mi Calm Calm - N/A   Clear
7:52 AM 46.0 °F - 32.0 °F 58% 30.00 in 10.0 mi Calm Calm - N/A   Clear
8:52 AM 54.0 °F - 30.9 °F 41% 29.99 in 10.0 mi WSW 6.9 mph - N/A   Clear
9:52 AM 59.0 °F - 30.9 °F 35% 29.99 in 10.0 mi Calm Calm - N/A   Clear
10:52 AM 61.0 °F - 30.9 °F 32% 29.98 in 10.0 mi Variable 3.5 mph - N/A   Clear
11:52 AM 64.9 °F - 30.0 °F 27% 29.96 in 10.0 mi Calm Calm - N/A   Clear
12:52 PM 71.1 °F - 28.9 °F 21% 29.93 in 10.0 mi North 8.1 mph - N/A   Clear
1:52 PM 68.0 °F - 25.0 °F 20% 29.92 in 10.0 mi West 18.4 mph 29.9 mph N/A   Clear
2:52 PM 70.0 °F - 28.0 °F 21% 29.91 in 10.0 mi WSW 23.0 mph 26.5 mph N/A   Clear
3:52 PM 66.9 °F - 28.0 °F 23% 29.89 in 10.0 mi West 20.7 mph 29.9 mph N/A   Clear
4:52 PM 68.0 °F - 19.9 °F 16% 29.88 in 10.0 mi WNW 18.4 mph 26.5 mph N/A   Clear
5:52 PM 66.0 °F - 17.1 °F 15% 29.88 in 10.0 mi NW 23.0 mph 28.8 mph N/A   Clear
6:52 PM 63.0 °F - 21.9 °F 21% 29.88 in 10.0 mi WNW 18.4 mph 28.8 mph N/A   Clear
7:52 PM 57.0 °F - 21.0 °F 25% 29.90 in 10.0 mi NW 10.4 mph - N/A   Clear
8:52 PM 55.0 °F - 19.0 °F 24% 29.91 in 10.0 mi NW 13.8 mph - N/A   Clear
9:07 PM 55.0 °F - 17.1 °F 23% 29.90 in 10.0 mi NW 16.1 mph - N/A   Clear
9:52 PM 51.1 °F - 16.0 °F 25% 29.92 in 10.0 mi NW 3.5 mph - N/A   Clear
10:52 PM 48.9 °F - 24.1 °F 38% 29.91 in 10.0 mi NW 9.2 mph - N/A   Clear
11:52 PM 46.9 °F - 26.1 °F 44% 29.92 in 10.0 mi WNW 10.4 mph - N/A   Clear